Regional Weather Roundup
Issued by NWS

Home | Current Version | Previous Version | Graphics & Text | Print | Product List | Glossary On
Versions: 1 2 3 4 5 6 7 8 9 10 11 12 13 14 15 16 17 18 19 20 21 22 23 24 25 26 27 28 29 30 31 32 33 34 35 36 37 38 39 40 41 42 43 44 45 46 47 48 49 50
000
ASUS43 KFSD 011410
RWRSD

WEATHER ROUNDUP FOR SOUTH DAKOTA
NATIONAL WEATHER SERVICE SIOUX FALLS SD
900 AM CDT WED APR 01 2015

NOTE: "FAIR" INDICATES FEW OR NO CLOUDS BELOW 12,000 FEET WITH NO
SIGNIFICANT WEATHER AND/OR OBSTRUCTIONS TO VISIBILITY.


SDZ001>005-009-010-012>017-011500-
NORTHWEST AND NORTH CENTRAL SOUTH DAKOTA

CITY           SKY/WX    TMP DP  RH WIND       PRES   REMARKS
BUFFALO          N/A     51  35  54 NW32G43   29.55R
FAITH            N/A     54  38  54 NW28G41   29.53R
MOBRIDGE       CLOUDY    55  30  38 W13       29.42R
$$

SDZ012>016-024>037-041>051-057-063-072>074-011500-
SOUTHWEST AND SOUTH CENTRAL SOUTH DAKOTA

CITY           SKY/WX    TMP DP  RH WIND       PRES   REMARKS
RAPID CTY ARPT MOSUNNY   53  35  50 NW35G41   29.61R
PIERRE         CLOUDY    60  26  27 W14       29.45R
CUSTER         SUNNY     52  20  28 VRB7      29.67R
ELLSWORTH AFB  MOSUNNY   52  35  52 NW28G35   29.62R
PHILIP         PTSUNNY   58  35  42 NW29G41   29.54R
PINE RIDGE     PTSUNNY   56  25  30 NW6       29.62R
SPEARFISH      FAIR      48  34  57 W16       29.73R
WINNER         FAIR      64  36  35 S25G35    29.48F
$$

SDZ004>011-016>023-039-040-011500-
NORTHEAST SOUTH DAKOTA

CITY           SKY/WX    TMP DP  RH WIND       PRES   REMARKS
ABERDEEN       CLOUDY    56  34  43 S20       29.42F
WATERTOWN      MOSUNNY   60  37  42 S28G37    29.50F
BROOKINGS      MOSUNNY   61  37  41 S30G48    29.58F
SISSETON         N/A     60  36  40 SW28G39   29.41F
$$

SDZ017-020-022-023-036>040-048>070-011500-
SOUTHEAST SOUTH DAKOTA

CITY           SKY/WX    TMP DP  RH WIND       PRES   REMARKS
SIOUX FALLS    PTSUNNY   61  34  36 S29G39    29.63F
HURON          CLOUDY    59  34  39 S20G28    29.47F
CHAMBERLAIN    CLOUDY    63  38  39 S21G26    29.47S
MITCHELL       CLOUDY    62  37  39 S14G23    29.53F
YANKTON        MOSUNNY   63  37  39 S20G31    29.64S
$$

ABBREVIATIONS USED IN REMARKS
   TC - TEMPERATURE IN CELSIUS
  WCI - WIND CHILL INDEX
   HX - HEAT INDEX
  VSB - VISIBILITY




USA.gov is the U.S. government's official web portal to all federal, state and local government web resources and services.